• In Uzbekistan
  • List of Countries
  • For 7 days
  • Water Temperature
  • Weather Map
  • Weather Widgets
  • user-avatar
    Login

    Hourly Weather Wadzhir

    Today, 19 September, Thursday

    Time Temperature Precipitation Wind Pressure Humidity
    00:00 +28°C° 0 mm 9 mps 737 mmHg 52%
    01:00 +27°C° 0 mm 8 mps 737 mmHg 58%
    02:00 +26°C° 0 mm 7 mps 737 mmHg 64%
    03:00 +24°C° 0 mm 6 mps 737 mmHg 72%
    04:00 +24°C° 0 mm 7 mps 738 mmHg 74%
    05:00 +23°C° 0 mm 7 mps 738 mmHg 77%
    06:00 +23°C° 0 mm 7 mps 739 mmHg 79%
    07:00 +24°C° 0 mm 7 mps 739 mmHg 73%
    08:00 +26°C° 0 mm 7 mps 739 mmHg 66%
    09:00 +27°C° 0 mm 7 mps 740 mmHg 60%
    10:00 +29°C° 0 mm 7 mps 739 mmHg 52%
    11:00 +32°C° 0 mm 7 mps 739 mmHg 43%
    12:00 +34°C° 0 mm 7 mps 738 mmHg 34%
    13:00 +35°C° 0 mm 7 mps 737 mmHg 32%
    14:00 +38°C° 0 mm 7 mps 736 mmHg 29%
    15:00 +39°C° 0 mm 6 mps 735 mmHg 26%
    16:00 +38°C° 0 mm 7 mps 735 mmHg 28%
    17:00 +37°C° 0 mm 8 mps 735 mmHg 31%
    18:00 +37°C° 0 mm 9 mps 735 mmHg 33%
    19:00 +34°C° 0 mm 8 mps 735 mmHg 38%
    20:00 +33°C° 0 mm 8 mps 736 mmHg 42%
    21:00 +32°C° 0 mm 7 mps 737 mmHg 47%
    22:00 +31°C° 0 mm 8 mps 737 mmHg 52%
    23:00 +29°C° 0 mm 8 mps 737 mmHg 56%

    Tomorrow, 20 September, Friday

    Time Temperature Precipitation Wind Pressure Humidity
    00:00 +28°C° 0 mm 8 mps 737 mmHg 60%
    01:00 +27°C° 0 mm 8 mps 737 mmHg 66%
    02:00 +26°C° 0 mm 8 mps 737 mmHg 71%
    03:00 +24°C° 0 mm 7 mps 737 mmHg 76%
    04:00 +24°C° 0 mm 7 mps 737 mmHg 77%
    05:00 +24°C° 0 mm 7 mps 738 mmHg 78%
    06:00 +24°C° 0 mm 6 mps 739 mmHg 79%
    07:00 +24°C° 0 mm 7 mps 739 mmHg 73%
    08:00 +26°C° 0 mm 7 mps 739 mmHg 67%
    09:00 +27°C° 0 mm 7 mps 740 mmHg 61%
    10:00 +31°C° 0 mm 8 mps 739 mmHg 51%
    11:00 +33°C° 0 mm 8 mps 739 mmHg 42%
    12:00 +35°C° 0 mm 8 mps 739 mmHg 32%
    13:00 +37°C° 0 mm 8 mps 737 mmHg 28%
    14:00 +38°C° 0 mm 8 mps 736 mmHg 24%
    15:00 +39°C° 0 mm 8 mps 735 mmHg 21%
    16:00 +38°C° 0 mm 8 mps 735 mmHg 22%
    17:00 +38°C° 0 mm 8 mps 735 mmHg 24%
    18:00 +37°C° 0 mm 8 mps 735 mmHg 25%
    19:00 +34°C° 0 mm 8 mps 735 mmHg 29%
    20:00 +33°C° 0 mm 7 mps 736 mmHg 32%
    21:00 +32°C° 0 mm 6 mps 736 mmHg 35%
    22:00 +30°C° 0 mm 7 mps 736 mmHg 42%
    23:00 +28°C° 0 mm 8 mps 737 mmHg 49%

    Day after tomorrow, 21 September, Saturday

    Time Temperature Precipitation Wind Pressure Humidity
    00:00 +27°C° 0 mm 9 mps 737 mmHg 55%
    01:00 +26°C° 0 mm 8 mps 737 mmHg 61%
    02:00 +24°C° 0 mm 7 mps 736 mmHg 67%
    03:00 +23°C° 0 mm 6 mps 736 mmHg 72%
    04:00 +23°C° 0 mm 5 mps 737 mmHg 76%
    05:00 +22°C° 0 mm 4 mps 737 mmHg 79%
    06:00 +23°C° 0 mm 2 mps 738 mmHg 83%
    07:00 +23°C° 0 mm 4 mps 738 mmHg 78%
    08:00 +25°C° 0 mm 5 mps 739 mmHg 74%
    09:00 +26°C° 0 mm 6 mps 739 mmHg 70%
    10:00 +28°C° 0 mm 6 mps 739 mmHg 61%
    11:00 +29°C° 0 mm 6 mps 738 mmHg 51%
    12:00 +32°C° 0 mm 6 mps 738 mmHg 42%
    13:00 +34°C° 0 mm 6 mps 737 mmHg 36%
    14:00 +36°C° 0 mm 7 mps 736 mmHg 29%
    15:00 +39°C° 0 mm 8 mps 735 mmHg 23%
    16:00 +38°C° 0 mm 8 mps 735 mmHg 25%
    17:00 +36°C° 0 mm 7 mps 734 mmHg 27%
    18:00 +35°C° 0 mm 7 mps 734 mmHg 28%
    19:00 +34°C° 0 mm 7 mps 735 mmHg 31%
    20:00 +33°C° 0 mm 6 mps 735 mmHg 34%
    21:00 +30°C° 0 mm 6 mps 736 mmHg 37%
    22:00 +30°C° 0 mm 6 mps 736 mmHg 44%
    23:00 +29°C° 0 mm 7 mps 737 mmHg 51%

    22 September, Sunday

    Time Temperature Precipitation Wind Pressure Humidity
    00:00 +28°C° 0 mm 8 mps 737 mmHg 57%
    01:00 +27°C° 0 mm 7 mps 737 mmHg 64%
    02:00 +26°C° 0 mm 7 mps 737 mmHg 70%
    03:00 +23°C° 0 mm 6 mps 736 mmHg 77%
    04:00 +23°C° 0 mm 6 mps 737 mmHg 79%
    05:00 +23°C° 0 mm 5 mps 737 mmHg 82%
    06:00 +22°C° 0 mm 5 mps 738 mmHg 84%
    07:00 +23°C° 0 mm 5 mps 738 mmHg 77%
    08:00 +24°C° 0 mm 6 mps 739 mmHg 69%
    09:00 +27°C° 0 mm 7 mps 739 mmHg 62%
    10:00 +29°C° 0 mm 7 mps 739 mmHg 54%
    11:00 +30°C° 0 mm 7 mps 738 mmHg 45%
    12:00 +33°C° 0 mm 7 mps 738 mmHg 37%
    13:00 +35°C° 0 mm 7 mps 737 mmHg 33%
    14:00 +36°C° 0 mm 7 mps 736 mmHg 29%
    15:00 +39°C° 0 mm 7 mps 735 mmHg 25%
    16:00 +38°C° 0 mm 7 mps 735 mmHg 26%
    17:00 +36°C° 0 mm 7 mps 735 mmHg 27%
    18:00 +36°C° 0 mm 7 mps 735 mmHg 28%
    19:00 +34°C° 0 mm 7 mps 735 mmHg 32%
    20:00 +33°C° 0 mm 6 mps 736 mmHg 36%
    21:00 +32°C° 0 mm 6 mps 736 mmHg 40%
    22:00 +30°C° 0 mm 7 mps 736 mmHg 45%
    23:00 +28°C° 0 mm 7 mps 737 mmHg 51%

    23 September, Monday

    Time Temperature Precipitation Wind Pressure Humidity
    00:00 +27°C° 0 mm 8 mps 737 mmHg 56%
    01:00 +26°C° 0 mm 7 mps 737 mmHg 59%
    02:00 +24°C° 0 mm 6 mps 737 mmHg 63%
    03:00 +24°C° 0 mm 6 mps 736 mmHg 66%
    04:00 +23°C° 0 mm 5 mps 737 mmHg 69%
    05:00 +23°C° 0 mm 5 mps 738 mmHg 72%
    06:00 +22°C° 0 mm 4 mps 738 mmHg 75%
    07:00 +25°C° 0 mm 5 mps 739 mmHg 68%
    08:00 +26°C° 0 mm 6 mps 739 mmHg 61%
    09:00 +28°C° 0 mm 7 mps 740 mmHg 53%
    10:00 +30°C° 0 mm 7 mps 739 mmHg 46%
    11:00 +33°C° 0 mm 7 mps 739 mmHg 38%
    12:00 +35°C° 0 mm 7 mps 738 mmHg 31%
    13:00 +36°C° 0 mm 7 mps 737 mmHg 28%
    14:00 +38°C° 0 mm 7 mps 736 mmHg 26%
    15:00 +39°C° 0 mm 7 mps 735 mmHg 23%
    16:00 +38°C° 0 mm 7 mps 735 mmHg 24%
    17:00 +38°C° 0 mm 7 mps 735 mmHg 25%
    18:00 +37°C° 0 mm 8 mps 734 mmHg 27%
    19:00 +35°C° 0 mm 7 mps 735 mmHg 31%
    20:00 +33°C° 0 mm 7 mps 735 mmHg 36%
    21:00 +32°C° 0 mm 7 mps 736 mmHg 40%
    22:00 +30°C° 0 mm 7 mps 736 mmHg 45%
    23:00 +29°C° 0 mm 8 mps 737 mmHg 49%

    24 September, Tuesday

    Time Temperature Precipitation Wind Pressure Humidity
    00:00 +28°C° 0 mm 8 mps 737 mmHg 54%
    01:00 +27°C° 0 mm 7 mps 737 mmHg 60%
    02:00 +26°C° 0 mm 7 mps 737 mmHg 67%
    03:00 +24°C° 0 mm 6 mps 736 mmHg 73%
    04:00 +24°C° 0 mm 6 mps 737 mmHg 75%
    05:00 +23°C° 0 mm 5 mps 738 mmHg 77%
    06:00 +23°C° 0 mm 5 mps 738 mmHg 79%
    07:00 +25°C° 0 mm 5 mps 739 mmHg 71%
    08:00 +27°C° 0 mm 6 mps 739 mmHg 63%
    09:00 +28°C° 0 mm 7 mps 739 mmHg 55%
    10:00 +30°C° 0 mm 7 mps 739 mmHg 48%
    11:00 +33°C° 0 mm 7 mps 738 mmHg 41%
    12:00 +35°C° 0 mm 7 mps 737 mmHg 34%
    13:00 +36°C° 0 mm 7 mps 736 mmHg 32%
    14:00 +38°C° 0 mm 7 mps 735 mmHg 31%
    15:00 +39°C° 0 mm 7 mps 734 mmHg 29%
    16:00 +38°C° 0 mm 7 mps 734 mmHg 31%
    17:00 +37°C° 0 mm 8 mps 734 mmHg 33%
    18:00 +35°C° 0 mm 8 mps 734 mmHg 35%
    19:00 +34°C° 0 mm 8 mps 734 mmHg 40%
    20:00 +33°C° 0 mm 8 mps 735 mmHg 44%
    21:00 +32°C° 0 mm 7 mps 735 mmHg 49%
    22:00 +31°C° 0 mm 8 mps 736 mmHg 54%
    23:00 +29°C° 0 mm 8 mps 736 mmHg 60%
    Show more